Temp
-12 -10 -9 -10 -10 -15 -17 -21 -16 -17 -18 -17 -15 -14 -11 -12 -12 -11 -12 -12 -12 -12 -13 -12 -11 -10 -9 -8 -6 -5 -3 -2 0 1 3 6 9 9 9 10 10 10 11 11
-12 -8 -8 -8 -9 -11 -15 -23 -22 -22 -18 -18 -11 -11 -11 -11 -12 -12 -12 -13 -13 -13 -13 -13 -12 -11 -11 -9 -7 -6 -5 -3 -2 0 1 2 5 7 9 9 10 10 10 11
-13 -10 -10 -10 -11 -12 -15 -18 -17 -14 -15 -16 -15 -12 -12 -12 -12 -12 -13 -13 -13 -13 -13 -13 -13 -12 -11 -10 -9 -7 -7 -5 -4 -2 -0 1 1 3 6 7 8 8 9 10
-14 -13 -14 -11 -12 -10 -11 -12 -15 -14 -14 -14 -12 -11 -12 -12 -12 -12 -13 -13 -13 -13 -12 -13 -13 -12 -12 -11 -9 -8 -8 -7 -5 -4 -2 -1 -0 1 3 4 5 9 8 10
-16 -16 -12 -10 -10 -12 -13 -12 -12 -13 -12 -11 -11 -12 -12 -12 -12 -13 -13 -13 -13 -13 -13 -13 -13 -12 -12 -11 -10 -9 -8 -8 -6 -5 -4 -3 -2 -0 0 1 2 4 5 7
-16 -14 -11 -12 -11 -10 -12 -13 -11 -11 -11 -11 -12 -16 -14 -12 -12 -13 -13 -13 -13 -13 -13 -12 -13 -13 -12 -11 -11 -11 -10 -9 -9 -7 -5 -5 -4 -3 -1 -0 -0 2 1 3
-15 -14 -13 -12 -11 -11 -14 -11 -10 -10 -10 -11 -15 -12 -11 -12 -13 -13 -13 -13 -13 -13 -13 -13 -13 -12 -12 -12 -11 -12 -11 -10 -9 -8 -7 -7 -6 -4 -3 -2 -1 -0 1 2
-14 -15 -13 -11 -12 -13 -10 -9 -9 -9 -10 -10 -11 -11 -12 -12 -13 -13 -13 -13 -13 -13 -13 -13 -13 -12 -12 -12 -12 -12 -11 -11 -10 -9 -8 -8 -7 -5 -4 -4 -3 -2 -1 -1
-13 -11 -10 -10 -7 -7 -7 -8 -9 -10 -10 -11 -11 -11 -12 -13 -13 -13 -13 -13 -13 -13 -13 -13 -13 -13 -12 -12 -12 -12 -12 -11 -11 -11 -10 -9 -8 -7 -6 -5 -5 -4 -3 -2
-14 -14 -13 -8 -8 -8 -9 -9 -9 -10 -10 -11 -11 -11 -12 -13 -13 -13 -13 -13 -13 -13 -13 -13 -13 -13 -13 -13 -12 -12 -12 -12 -11 -11 -10 -10 -10 -9 -8 -7 -6 -6 -5 -5
-17 -14 -10 -8 -7 -7 -8 -8 -9 -9 -10 -11 -11 -12 -12 -12 -13 -13 -13 -13 -13 -13 -13 -13 -13 -13 -13 -13 -12 -12 -12 -12 -12 -12 -11 -11 -11 -10 -10 -10 -9 -8 -8 -7
-12 -8 -9 -7 -7 -7 -8 -8 -9 -10 -10 -11 -11 -11 -12 -12 -13 -13 -13 -13 -13 -13 -13 -13 -13 -13 -13 -13 -13 -12 -12 -12 -12 -12 -12 -12 -11 -11 -11 -11 -10 -10 -10 -9
-7 -9 -10 -9 -9 -8 -9 -9 -10 -10 -10 -11 -12 -12 -12 -12 -12 -13 -13 -13 -13 -13 -13 -13 -13 -13 -13 -13 -13 -13 -13 -13 -13 -13 -12 -12 -12 -11 -11 -11 -11 -11 -11 -10
-8 -9 -10 -8 -9 -9 -9 -10 -10 -10 -11 -11 -12 -12 -12 -12 -12 -13 -13 -13 -13 -13 -13 -13 -12 -13 -13 -12 -13 -13 -13 -13 -13 -13 -13 -13 -13 -13 -12 -12 -11 -11 -11 -11
-7 -8 -9 -9 -10 -10 -10 -11 -11 -11 -12 -12 -13 -13 -13 -12 -12 -12 -13 -13 -13 -12 -12 -13 -12 -13 -13 -13 -13 -13 -13 -13 -14 -14 -14 -14 -14 -14 -14 -13 -12 -12 -12 -12
-7 -8 -9 -9 -10 -11 -11 -11 -11 -11 -12 -13 -14 -13 -13 -13 -13 -13 -13 -13 -12 -12 -13 -13 -13 -13 -13 -13 -13 -13 -13 -13 -14 -14 -14 -14 -14 -14 -14 -14 -14 -13 -13 -13
-9 -9 -9 -9 -9 -10 -11 -12 -12 -12 -13 -14 -14 -14 -14 -13 -13 -12 -12 -13 -13 -13 -13 -13 -13 -13 -13 -13 -13 -14 -14 -14 -14 -14 -14 -14 -14 -14 -15 -15 -15 -15 -14 -14
-6 -8 -9 -10 -10 -10 -11 -12 -13 -13 -14 -14 -15 -15 -14 -14 -13 -13 -13 -13 -13 -13 -13 -14 -14 -14 -14 -14 -14 -14 -14 -15 -15 -15 -15 -15 -15 -15 -15 -15 -15 -15 -15 -15
-6 -7 -9 -10 -11 -11 -12 -12 -13 -14 -14 -15 -15 -15 -15 -14 -14 -14 -14 -14 -14 -14 -14 -15 -15 -15 -15 -15 -15 -15 -15 -15 -16 -16 -16 -16 -16 -16 -15 -16 -16 -16 -16 -16
-7 -8 -9 -10 -11 -12 -12 -13 -13 -14 -15 -15 -15 -15 -15 -15 -15 -14 -14 -14 -14 -15 -15 -15 -15 -16 -16 -16 -16 -16 -16 -16 -16 -17 -17 -17 -17 -17 -16 -16 -16 -16 -16 -16
-7 -8 -9 -10 -11 -12 -13 -13 -14 -14 -15 -16 -16 -16 -16 -15 -15 -15 -15 -15 -15 -15 -16 -16 -16 -16 -16 -16 -17 -17 -17 -17 -17 -17 -17 -17 -17 -17 -17 -17 -17 -17 -16 -16
-8 -9 -10 -11 -12 -12 -13 -14 -14 -15 -16 -16 -16 -16 -16 -16 -16 -16 -16 -16 -16 -16 -16 -16 -16 -17 -17 -17 -17 -17 -17 -17 -17 -17 -17 -17 -17 -17 -17 -17 -17 -17 -17 -17
-9 -9 -11 -11 -12 -13 -14 -14 -15 -16 -16 -16 -16 -17 -17 -17 -17 -17 -16 -17 -17 -17 -17 -17 -17 -18 -17 -17 -17 -17 -17 -17 -17 -17 -17 -17 -17 -17 -17 -17 -17 -17 -17 -17
-9 -10 -11 -13 -13 -13 -14 -15 -15 -16 -16 -17 -17 -17 -17 -17 -17 -17 -18 -18 -19 -19 -18 -18 -18 -18 -17 -17 -17 -17 -17 -17 -17 -17 -17 -17 -17 -17 -17 -17 -17 -17 -17 -17
-10 -11 -12 -13 -13 -14 -15 -15 -16 -16 -17 -17 -17 -17 -18 -18 -18 -18 -18 -18 -18 -19 -19 -19 -19 -18 -18 -18 -18 -18 -18 -18 -18 -18 -18 -18 -18 -18 -18 -18 -18 -18 -18 -18
-11 -12 -13 -13 -14 -15 -15 -16 -16 -17 -17 -17 -18 -18 -18 -18 -18 -19 -19 -19 -19 -19 -20 -20 -19 -19 -19 -19 -19 -19 -19 -19 -19 -19 -19 -18 -18 -18 -18 -18 -18 -18 -18 -18
-12 -13 -14 -14 -15 -15 -16 -17 -17 -17 -18 -18 -18 -18 -19 -19 -19 -19 -19 -19 -19 -19 -19 -19 -19 -19 -19 -19 -19 -19 -19 -19 -19 -19 -19 -19 -19 -19 -19 -18 -18 -18 -18 -18
Height
1545 1538 1535 1534 1531 1542 1551 1559 1553 1545 1545 1524 1516 1511 1506 1505 1500 1497 1493 1492 1486 1484 1482 1474 1468 1462 1457 1456 1449 1445 1448 1445 1441 1442 1440 1443 1446 1448 1449 1450 1459 1463 1467 1481
1545 1529 1527 1524 1524 1531 1539 1557 1555 1553 1537 1517 1511 1509 1507 1504 1504 1500 1495 1492 1489 1487 1479 1477 1473 1466 1463 1458 1454 1450 1446 1443 1443 1443 1444 1441 1442 1449 1451 1454 1459 1461 1464 1468
1554 1534 1528 1531 1530 1530 1534 1537 1535 1534 1522 1515 1512 1508 1506 1503 1502 1499 1497 1494 1491 1485 1483 1480 1474 1470 1470 1468 1464 1459 1455 1450 1448 1447 1444 1445 1448 1449 1450 1453 1454 1456 1454 1461
1558 1545 1562 1527 1524 1522 1523 1520 1520 1517 1514 1512 1510 1507 1503 1502 1499 1497 1497 1496 1492 1485 1480 1478 1476 1473 1475 1472 1467 1463 1459 1457 1454 1450 1449 1449 1451 1451 1447 1449 1450 1448 1448 1455
1573 1571 1536 1520 1521 1524 1526 1516 1508 1511 1510 1509 1509 1506 1502 1501 1501 1498 1497 1495 1491 1488 1484 1478 1477 1478 1477 1474 1469 1466 1462 1459 1456 1455 1453 1455 1452 1452 1449 1449 1452 1446 1448 1449
1568 1563 1543 1522 1515 1517 1520 1520 1505 1507 1507 1507 1508 1512 1504 1502 1499 1497 1498 1496 1491 1488 1484 1481 1480 1478 1477 1474 1472 1469 1466 1464 1460 1457 1455 1455 1457 1454 1449 1450 1453 1453 1457 1449
1558 1556 1533 1512 1514 1518 1533 1514 1501 1503 1504 1505 1505 1503 1501 1500 1499 1498 1496 1495 1492 1490 1488 1484 1483 1481 1477 1475 1472 1470 1469 1466 1462 1460 1458 1458 1456 1453 1452 1453 1454 1454 1456 1454
1550 1557 1542 1506 1514 1520 1502 1498 1499 1500 1500 1499 1499 1499 1499 1498 1496 1496 1494 1492 1490 1489 1487 1485 1484 1481 1478 1475 1474 1472 1469 1466 1463 1462 1460 1460 1459 1456 1456 1455 1456 1455 1458 1458
1533 1512 1496 1496 1492 1493 1493 1494 1494 1496 1496 1495 1494 1495 1495 1496 1495 1493 1493 1491 1490 1487 1487 1486 1484 1482 1479 1478 1475 1472 1470 1467 1465 1464 1461 1462 1462 1459 1457 1458 1457 1457 1457 1458
1520 1493 1491 1492 1492 1490 1490 1490 1491 1491 1491 1491 1490 1490 1491 1491 1491 1491 1489 1487 1486 1487 1488 1487 1484 1482 1480 1480 1477 1473 1471 1468 1464 1462 1461 1465 1464 1462 1459 1459 1459 1459 1460 1461
1510 1491 1487 1485 1486 1484 1484 1486 1487 1487 1487 1486 1486 1486 1486 1486 1487 1487 1487 1487 1487 1488 1486 1485 1483 1482 1481 1480 1477 1474 1473 1470 1467 1465 1466 1467 1464 1462 1461 1463 1464 1463 1462 1464
1494 1481 1482 1482 1481 1480 1479 1482 1483 1483 1482 1482 1482 1482 1482 1482 1483 1483 1483 1484 1484 1483 1483 1483 1481 1480 1479 1479 1476 1474 1473 1471 1468 1468 1467 1464 1463 1463 1465 1466 1465 1465 1465 1465
1479 1480 1480 1478 1478 1478 1479 1479 1479 1479 1478 1477 1477 1477 1477 1477 1478 1479 1479 1479 1480 1482 1481 1481 1480 1479 1478 1475 1474 1473 1472 1470 1470 1467 1464 1464 1463 1465 1465 1466 1465 1464 1467 1466
1476 1477 1475 1474 1474 1474 1475 1475 1475 1475 1474 1472 1471 1471 1471 1471 1473 1473 1474 1477 1477 1476 1477 1476 1475 1475 1474 1473 1473 1473 1470 1469 1469 1466 1464 1464 1464 1465 1466 1465 1463 1464 1465 1465
1471 1472 1471 1469 1470 1470 1470 1471 1471 1470 1469 1467 1465 1465 1465 1465 1466 1468 1470 1470 1470 1472 1473 1473 1473 1473 1472 1472 1471 1469 1469 1467 1466 1464 1464 1465 1465 1466 1467 1466 1464 1464 1466 1466
1466 1466 1465 1464 1465 1466 1466 1466 1465 1465 1464 1462 1460 1460 1460 1460 1462 1463 1465 1465 1466 1467 1468 1469 1469 1469 1469 1469 1468 1467 1464 1462 1461 1460 1462 1463 1464 1466 1467 1466 1465 1465 1465 1463
1462 1460 1460 1458 1460 1460 1460 1462 1461 1460 1459 1457 1457 1456 1455 1455 1456 1457 1459 1461 1462 1464 1464 1464 1464 1464 1463 1463 1462 1461 1459 1459 1459 1459 1460 1460 1462 1463 1464 1463 1462 1461 1461 1460
1455 1455 1455 1456 1455 1456 1457 1457 1457 1456 1454 1454 1453 1452 1452 1452 1452 1453 1454 1455 1457 1458 1459 1460 1460 1460 1460 1459 1458 1457 1456 1455 1455 1456 1455 1457 1457 1462 1460 1458 1459 1459 1459 1459
1450 1450 1451 1451 1452 1452 1453 1453 1453 1452 1450 1450 1449 1449 1449 1449 1449 1449 1450 1451 1452 1453 1455 1455 1455 1455 1455 1455 1454 1453 1453 1452 1453 1454 1453 1453 1455 1457 1451 1453 1456 1456 1455 1456
1446 1446 1447 1447 1448 1449 1449 1449 1449 1448 1447 1446 1446 1445 1445 1445 1446 1446 1447 1447 1448 1449 1449 1450 1450 1449 1449 1449 1450 1449 1449 1449 1450 1450 1450 1450 1451 1450 1449 1450 1450 1452 1453 1453
1441 1441 1442 1443 1444 1445 1445 1445 1445 1444 1443 1443 1442 1442 1442 1442 1442 1443 1443 1443 1445 1444 1444 1444 1444 1443 1443 1443 1443 1444 1444 1444 1445 1444 1444 1444 1445 1445 1445 1446 1446 1447 1448 1449
1436 1436 1437 1438 1440 1441 1441 1441 1441 1440 1440 1439 1439 1438 1438 1438 1438 1438 1439 1439 1439 1439 1439 1438 1438 1437 1437 1437 1438 1438 1438 1438 1438 1438 1438 1438 1439 1439 1440 1441 1442 1443 1444 1444
1431 1432 1433 1434 1436 1437 1437 1437 1436 1436 1435 1435 1435 1435 1435 1434 1434 1434 1434 1434 1433 1433 1433 1433 1433 1432 1433 1434 1433 1433 1433 1433 1433 1434 1434 1434 1434 1435 1436 1436 1436 1437 1438 1438
1426 1427 1429 1431 1431 1432 1433 1432 1432 1431 1431 1431 1431 1431 1431 1431 1430 1430 1429 1428 1428 1428 1428 1428 1428 1428 1429 1427 1427 1427 1427 1427 1427 1427 1428 1429 1429 1430 1430 1431 1431 1432 1433 1434
1423 1424 1425 1426 1427 1429 1429 1429 1428 1428 1428 1428 1428 1428 1427 1427 1426 1426 1425 1424 1423 1422 1421 1422 1422 1424 1422 1420 1420 1420 1420 1420 1420 1420 1420 1421 1421 1421 1422 1422 1423 1424 1424 1424
1420 1421 1423 1423 1425 1426 1427 1427 1426 1426 1425 1425 1425 1424 1423 1423 1422 1421 1420 1419 1417 1417 1416 1415 1415 1415 1414 1413 1413 1412 1412 1412 1412 1412 1412 1412 1412 1412 1412 1412 1413 1413 1413 1414
1418 1419 1419 1421 1421 1421 1422 1422 1423 1423 1422 1422 1421 1421 1420 1419 1418 1417 1415 1414 1412 1411 1410 1409 1408 1407 1406 1405 1404 1404 1404 1404 1403 1403 1403 1403 1403 1403 1403 1404 1404 1404 1404 1405
Wind_Speed
8 12 5 6 4 3 3 5 4 5 5 8 8 6 13 14 17 17 19 21 24 25 26 28 27 27 27 22 20 17 13 12 12 6 4 12 16 42 34 28 37 44 53 57
4 4 9 12 6 4 3 3 4 2 7 7 12 13 13 13 11 13 16 19 20 21 23 26 26 27 27 25 21 18 16 14 11 7 5 4 11 18 37 39 29 47 51 55
5 7 10 3 4 3 3 4 5 3 7 2 6 11 14 12 11 13 14 16 20 21 20 22 24 24 25 22 19 17 17 14 12 9 8 3 4 4 19 27 29 34 38 55
4 6 4 5 3 4 6 9 8 5 5 8 10 13 15 7 11 14 15 16 16 20 20 20 20 20 20 20 19 17 17 16 13 12 9 8 3 4 7 8 17 33 24 43
1 1 7 2 4 5 4 7 5 6 6 10 8 11 8 7 9 10 13 14 14 16 16 18 18 18 18 18 18 17 17 18 17 14 12 9 8 6 7 8 4 13 17 27
2 0 4 5 3 6 7 4 6 12 9 9 3 2 3 4 10 11 11 12 12 14 13 14 15 16 16 17 17 18 18 18 17 15 13 12 9 9 9 10 9 8 8 17
4 5 8 6 9 8 4 5 10 14 14 11 5 9 9 11 9 10 11 10 10 10 10 11 12 13 14 16 16 16 16 16 16 16 14 12 11 9 10 10 9 10 9 10
2 1 7 13 8 7 7 6 9 13 16 16 16 14 12 11 11 10 11 10 9 8 8 8 10 12 13 14 15 14 14 14 15 15 14 13 11 9 8 9 10 11 9 11
8 7 3 30 15 15 13 10 10 13 15 15 16 15 13 12 11 12 10 8 7 6 6 7 8 10 12 13 14 14 13 13 13 13 14 12 12 11 9 7 6 7 7 6
3 5 13 24 29 27 18 17 16 12 13 14 16 15 15 14 12 12 10 9 7 6 5 6 7 9 11 12 12 13 13 13 13 13 12 11 10 11 11 10 7 6 4 3
7 15 21 14 16 20 23 20 15 14 15 16 15 16 16 15 14 12 11 10 9 8 7 7 8 8 10 11 11 11 11 11 11 11 10 9 8 9 10 13 12 8 7 4
6 7 6 7 8 9 16 13 11 13 15 15 16 17 15 16 14 13 13 12 12 11 11 10 10 10 11 12 11 11 11 10 10 10 9 9 8 6 2 3 3 5 9 8
4 3 10 15 11 10 9 10 11 12 13 16 17 18 17 18 15 14 14 14 13 12 13 12 11 10 11 12 12 11 10 9 9 9 8 8 7 6 4 1 2 2 3 3
24 24 19 15 9 13 14 11 12 13 15 17 18 18 20 20 17 17 14 11 13 15 11 9 9 8 10 10 10 10 9 8 9 8 7 7 6 6 6 5 4 2 5 6
20 17 19 19 14 13 14 13 13 14 16 17 17 19 18 20 18 16 13 14 15 12 8 9 9 8 10 11 11 12 11 9 9 9 8 7 7 7 7 6 5 5 4 5
8 11 15 17 15 16 16 14 14 14 14 14 15 14 17 18 18 16 14 16 16 12 11 12 11 10 11 12 13 13 12 11 11 11 10 10 9 9 8 7 6 6 6 5
20 19 17 17 14 14 15 12 13 14 15 14 12 11 12 14 20 20 18 18 18 15 13 14 13 13 14 14 15 14 13 13 12 14 13 13 13 12 11 9 9 7 7 5
17 20 19 14 10 11 12 11 12 13 13 12 11 11 12 13 14 15 17 17 17 17 16 14 13 14 15 15 16 15 15 14 13 14 14 15 15 15 12 11 10 8 8 8
15 15 14 13 12 11 11 10 11 12 11 11 11 11 11 12 12 11 10 12 15 16 15 14 14 15 16 15 16 16 16 16 16 16 15 15 16 16 15 15 15 12 10 11
15 15 15 14 13 12 11 11 11 11 10 10 10 10 10 10 11 12 13 15 15 16 16 16 17 17 18 18 17 18 20 21 21 20 17 15 15 14 13 15 15 14 13 12
16 15 15 14 13 12 11 11 11 11 10 10 10 9 9 9 9 11 13 15 15 16 18 18 19 21 20 18 17 17 18 18 17 16 15 14 14 14 16 16 16 16 15 14
16 17 15 14 13 12 11 11 11 11 11 11 12 12 12 12 13 14 15 17 16 17 19 20 19 19 18 16 14 12 12 13 14 14 14 14 16 16 15 15 17 19 19 18
15 15 15 15 12 11 11 11 12 12 12 11 11 11 12 12 13 15 16 14 16 16 16 15 14 14 14 15 19 20 19 17 17 18 19 19 21 20 19 17 15 17 19 18
14 14 13 12 13 12 11 11 12 11 10 9 10 10 11 11 12 12 13 13 12 13 14 16 16 14 13 19 21 22 22 22 22 22 22 22 22 22 23 23 23 24 24 23
11 11 12 13 12 10 11 11 10 9 9 10 10 9 10 11 13 13 15 15 15 14 18 19 16 14 19 22 23 24 24 24 24 25 25 25 25 26 27 28 28 28 28 28
10 9 9 9 8 9 10 11 10 9 9 9 9 9 11 11 12 13 14 16 16 15 15 17 17 18 20 24 27 27 27 27 26 25 25 26 26 26 26 27 27 27 27 28
9 9 10 9 9 9 9 9 10 8 8 10 10 8 11 12 12 14 15 16 17 18 19 19 19 19 21 21 22 23 23 24 24 25 25 26 27 27 28 27 27 27 27 27
Wind_Direction
260 265 250 239 227 170 142 203 148 261 241 277 285 294 320 334 348 350 357 357 357 360 4 11 20 21 24 23 28 31 28 39 51 54 152 188 229 235 243 208 210 217 222 226
293 293 318 302 179 195 190 200 282 288 283 220 289 315 325 326 345 350 355 352 352 352 3 7 14 20 19 20 24 26 28 36 39 46 69 127 199 229 224 237 216 223 228 228
277 326 313 359 207 214 238 203 165 237 234 296 299 307 318 313 336 347 350 343 348 356 357 0 11 13 15 16 21 31 38 36 43 44 63 80 89 178 210 213 214 217 197 202
278 345 16 243 208 215 239 249 216 253 260 254 269 300 307 298 325 337 338 341 347 350 354 0 7 12 7 12 22 27 38 43 41 52 56 66 72 121 170 193 198 207 195 197
12 228 281 283 212 195 160 277 214 209 246 272 291 308 279 260 310 323 329 334 338 344 349 358 5 4 6 11 20 28 33 37 40 39 50 51 76 78 107 117 143 151 176 190
93 101 258 234 209 154 124 290 208 209 236 267 306 351 266 251 311 316 322 329 335 343 346 352 358 2 6 11 18 25 29 32 37 40 41 41 52 76 86 87 107 154 143 149
219 239 281 232 147 135 83 244 191 210 239 253 208 240 286 295 298 301 314 323 328 336 343 356 356 359 8 12 18 22 20 22 32 39 46 39 44 67 86 104 105 131 154 160
133 325 289 158 123 163 216 193 218 233 251 260 269 275 276 283 286 289 303 313 321 334 346 2 4 5 8 13 17 14 19 23 22 27 41 42 44 60 83 98 118 129 130 117
181 222 199 182 223 241 241 262 276 273 282 275 273 269 276 273 272 285 289 296 306 327 339 350 5 5 9 10 11 13 14 22 31 22 26 35 42 59 68 78 83 93 125 133
39 272 243 260 245 251 247 260 285 282 271 269 269 274 273 272 277 275 277 285 290 296 305 326 349 357 356 358 3 6 10 13 22 27 31 19 32 45 56 52 49 55 54 67
263 280 281 282 276 282 262 249 265 272 273 273 272 270 273 275 275 276 267 262 267 272 285 304 321 333 333 339 347 358 2 5 12 22 28 35 26 34 47 55 44 38 30 27
232 243 221 294 305 281 227 248 264 266 273 271 266 272 273 272 273 268 264 258 260 271 280 289 302 309 312 315 327 336 344 353 0 7 14 22 31 40 39 42 46 48 58 34
263 223 295 296 285 239 226 240 254 268 282 280 267 264 264 268 266 262 257 258 264 264 270 286 291 298 297 302 311 316 322 332 338 347 356 4 15 15 16 332 278 290 312 303
259 268 283 285 264 247 242 245 264 279 287 286 277 261 259 262 259 259 258 258 255 261 272 278 292 310 301 313 313 307 308 312 317 328 337 337 344 346 343 335 337 314 284 279
273 262 265 273 269 250 246 258 270 285 292 289 282 265 256 252 254 256 256 250 249 253 259 272 287 297 302 309 310 310 306 302 299 303 308 309 308 313 314 315 313 311 304 288
279 252 263 263 261 246 249 259 274 291 297 293 283 281 260 253 255 252 245 243 246 252 258 268 279 288 292 298 304 305 304 301 296 294 290 289 291 288 291 297 299 290 296 305
267 261 263 266 261 246 247 259 278 292 298 294 291 280 274 261 251 249 245 244 249 253 255 265 279 278 283 292 298 300 298 292 287 282 284 284 281 276 276 279 292 289 287 288
273 262 263 271 268 249 247 264 281 293 296 295 285 277 269 268 270 260 252 246 245 248 255 268 269 270 277 284 289 290 291 290 285 283 283 281 281 277 272 272 277 277 272 274
272 258 250 253 259 256 262 272 284 292 290 284 280 275 271 265 265 263 251 240 240 251 263 269 265 275 280 282 281 280 280 279 277 280 279 274 272 272 270 268 271 270 266 272
263 251 244 250 250 258 267 279 287 290 286 280 278 273 268 264 259 256 253 256 258 267 266 262 270 275 277 278 271 263 265 269 274 276 273 266 266 271 269 265 265 263 260 263
260 249 245 246 249 255 268 278 283 287 279 276 275 270 264 263 260 256 255 258 261 263 267 270 272 275 277 277 271 266 263 268 272 273 271 264 262 264 264 257 254 258 263 263
261 248 247 246 247 256 266 274 281 284 280 275 271 268 267 264 264 264 265 268 267 265 267 269 270 269 271 274 275 275 274 270 268 268 268 270 267 266 266 268 262 258 258 261
255 246 243 243 246 256 261 272 281 284 280 274 268 266 268 270 270 272 273 272 273 274 275 272 267 270 268 263 263 269 269 266 264 266 264 266 262 264 268 270 272 266 262 261
252 244 243 235 240 251 263 275 283 281 271 264 269 274 275 275 274 282 283 281 277 272 267 269 272 269 263 261 262 264 265 265 264 263 263 263 260 257 258 260 263 265 266 264
248 238 235 237 243 255 268 279 281 271 267 271 275 276 279 281 283 285 284 285 283 274 265 265 267 261 260 262 262 262 262 264 264 264 264 263 261 260 259 261 263 264 263 263
246 244 240 238 245 262 274 279 277 273 273 275 281 285 284 286 288 291 291 290 288 286 277 276 275 270 260 255 259 262 265 267 267 266 266 267 266 265 264 264 265 265 265 265
234 232 230 235 252 263 270 270 274 273 278 289 295 289 295 297 294 294 295 295 292 289 286 283 279 275 274 274 271 269 268 267 266 266 265 264 264 265 265 266 265 265 264 264